STARLINK-1626, 46167

Orbit data source: Space-Track

STARLINK-1626, 46167 is a payload satellite owned by SpaceX/Seattle (US) in LEO that was launched on Tue, 18 Aug 2020 UTC via an FALCON 9 launch vehicle from the Air Force Eastern Test Range (AFETR). Payload-class satellites include a variety of spacecraft equipped with specific instruments for various scientific and technological missions. These include communications satellites like Starlink; space stations such as the ISS; scientific satellites like the Hubble; Earth observation satellites from companies like Planet Labs, Umbra, and HawkEye 360; GPS; miniature CubeSats for education and research; and military/defense satellites.

Loading next visibility...
Identifier
46167, 2020-057BC
Orbit
LEO
Country
Flag of USUS
Related business
Manufacturer
SpaceX/Seattle
Mission
Partially operational Commercial Communications
Bus & Motor
STARLINK, Unknown motor
Mass
260 kg wet, ~248 kg dry
Launch date (UTC)
2020-08-18 (6 years ago)
Launch vehicle
FALCON 9
Launch site
Air Force Eastern Test Range (AFETR)
Object type
Payload
Rocket body
Debris
Shape & HBR
Box + 1 Pan, 10.1 m
Radar Cross Section
13.562 m², Large (>1 m²)

Expand to show TLE details & history
Last TLE update: 11 hours ago

TLE from 11 hours ago
0 STARLINK-1626
1 46167U 20057BC  26072.00002315  .00155523  00000-0  22199-2 0  9992
2 46167  53.0484 278.2858 0006455 147.3662  35.3291 15.55243494  5762
Epoch: 2026-03-13T00:00Z
TLE epoch observation values (Epoch: 2026-03-13T00:00:02.000Z)
Latitude
-2.28256°
Longitude
-70.6558°
Altitude
399.097 km
Speed
7.674 km/s
True Right ascension
06h 39m 58s
True Declination
-2° 16' 05"
Sunlit
Object was in daylight at epoch
Visualization orbit readout
Latitude
Unknown
Longitude
Unknown
Altitude
Unknown
Speed
Unknown
Apparent Right ascension
Unknown
Apparent Declination
Unknown
Sunlit
N/A
Visualization observer readout
Local Sidereal Time
15:47:26
Azimuth
Unknown
Elevation
Unknown
Doppler factor
Unknown
Orbital elements
Apogee altitude
406.099 km
Perigee altitude
397.346 km
Semi-major axis
6,779.859 km
Eccentricity
0.00065
Inclination
53.0484°
RAAN
278.2858°
Arg. of periapsis
147.3662°
True anomaly
35.3719°
Mean anomaly
35.3291°
Eccentric anomaly
35.3505°
Mean motion
3.88787 °/min
Orbital period
92.6 mins
BSTAR
0.0022199
Loading maneuver chart data...
Computing Atmospheric mass density...

Documentation

Showing up to 5 results
|